Weather History for LICZ - March, 2013

Change the Weather History Date:

Friday, March 29, 2013

  Actual Average Record
Temperature  
Mean Temperature 61 °F -  
Max Temperature 72 °F 69 °F 73 °F (2006)
Min Temperature 50 °F 47 °F 37 °F (1998)
Degree Days  
Heating Degree Days 4    
Growing Degree Days 11 (Base 50)    
Moisture  
Dew Point 52 °F    
Average Humidity 79    
Maximum Humidity 100    
Minimum Humidity 37    
Precipitation  
Precipitation 0.00 in 0.05 in - ()
Sea Level Pressure  
Sea Level Pressure 29.86 in    
Wind  
Wind Speed 6 mph ()    
Max Wind Speed 14 mph    
Max Gust Speed -    
Visibility 6.3 miles    
Events      
Averages and records for this station are not official NWS values.
T = Trace of Precipitation, MM = Missing Value Source: Averaged Metar Reports

Daily Weather History Graph

Daily Weather History Graph

Search for Another Location

Airport or City:

Trip Planner

Search our weather history database for the weather conditions in past years. The results will help you decide how hot, cold, wet, or windy it might be!

Date:

Astronomy

Mar. 29, 2013 Rise Set
Actual Time 5:50 AM CET 6:20 PM CET
Civil Twilight 5:24 AM CET 6:46 PM CET
Nautical Twilight 4:53 AM CET 7:17 PM CET
Astronomical Twilight 4:21 AM CET 7:49 PM CET
Moon 8:56 PM CET (3/29) 6:50 AM CET (3/29)
Length of Visible Light 13h 22m
Length of Day
12h 29m
Waning Gibbous, 95% of the Moon is Illuminated
Mar 29
Waning Gibbous
Apr 3
Last Quarter
Apr 10
New
Apr 18
First Quarter
Apr 25
Full

Hourly Weather History & Observations

Time (CET) Temp. Dew Point Humidity Pressure Visibility Wind Dir Wind Speed Gust Speed Precip Events Conditions
12:55 AM 55.4 °F 55.4 °F 100% 29.89 in 6.2 mi South 5.8 mph - N/A   Scattered Clouds
1:00 AM 55 °F 55 °F 100% 29.90 in 6 mi South 5.8 mph - -   Partly Cloudy
1:55 AM 55.4 °F 55.4 °F 100% 29.89 in 6.2 mi North 2.3 mph - N/A   Scattered Clouds
2:55 AM 55.4 °F 55.4 °F 100% 29.89 in 6.2 mi WSW 2.3 mph - N/A   Scattered Clouds
3:55 AM 53.6 °F 53.6 °F 100% 29.86 in 6.2 mi WNW 4.6 mph - N/A   Scattered Clouds
4:00 AM 54 °F 54 °F 98% 29.88 in 6 mi WNW 4.6 mph - -   Partly Cloudy
4:55 AM 53.6 °F 53.6 °F 100% 29.86 in 6.2 mi NNW 6.9 mph - N/A   Scattered Clouds
5:55 AM 51.8 °F 51.8 °F 100% 29.86 in 3.7 mi NNE 3.5 mph - N/A   Scattered Clouds
6:55 AM 50.0 °F 50.0 °F 100% 29.86 in 3.7 mi East 4.6 mph - N/A   Scattered Clouds
7:00 AM 51 °F 51 °F 99% 29.88 in 4 mi East 4.6 mph - -   Partly Cloudy
7:55 AM 53.6 °F 53.6 °F 100% 29.89 in 5.0 mi WNW 2.3 mph - N/A   Scattered Clouds
8:55 AM 62.6 °F 57.2 °F 82% 29.89 in 6.2 mi SE 5.8 mph - N/A   Scattered Clouds
9:55 AM 64.4 °F 46.4 °F 52% 29.86 in 6.2 mi East 8.1 mph - N/A   Scattered Clouds
10:00 AM 64 °F 47 °F 43% 29.88 in 8 mi East 8.1 mph - -   Scattered Clouds
10:55 AM 68.0 °F 48.2 °F 49% 29.89 in 6.2 mi North 4.6 mph - N/A   Scattered Clouds
11:55 AM 69.8 °F 48.2 °F 46% 29.86 in 6.2 mi East 12.7 mph - N/A   Partly Cloudy
12:55 PM 69.8 °F 48.2 °F 46% 29.86 in 6.2 mi East 13.8 mph - N/A   Partly Cloudy
1:00 PM 69 °F 49 °F 38% 29.86 in 11 mi East 13.8 mph - -   Scattered Clouds
1:55 PM 69.8 °F 48.2 °F 46% 29.83 in 6.2 mi East 11.5 mph - N/A   Partly Cloudy
2:55 PM 69.8 °F 46.4 °F 43% 29.83 in 6.2 mi East 13.8 mph - N/A   Partly Cloudy
3:55 PM 68.0 °F 46.4 °F 46% 29.80 in 6.2 mi ESE 13.8 mph - N/A   Partly Cloudy
4:00 PM 67 °F 47 °F 37% 29.83 in 9 mi ESE 13.8 mph - -   Scattered Clouds
4:55 PM 64.4 °F 48.2 °F 56% 29.83 in 6.2 mi East 10.4 mph - N/A   Partly Cloudy
5:55 PM 60.8 °F 53.6 °F 77% 29.83 in 6.2 mi ESE 9.2 mph - N/A   Partly Cloudy
6:55 PM 57.2 °F 57.2 °F 100% 29.83 in - ESE 3.5 mph - N/A   Clear
7:00 PM 58 °F 56 °F 93% 29.84 in 8 mi ESE 3.5 mph - -   Clear
7:55 PM 53.6 °F 53.6 °F 100% 29.83 in - South 4.6 mph - N/A   Clear
8:55 PM 55.4 °F 55.4 °F 100% 29.86 in - NW 2.3 mph - N/A   Clear
9:55 PM 55.4 °F 55.4 °F 100% 29.86 in - NNW 2.3 mph - N/A   Clear
10:00 PM 55 °F 55 °F 100% 29.87 in 6 mi NNW 2.3 mph - -  
10:55 PM 55.4 °F 55.4 °F 100% 29.86 in - West 5.8 mph - N/A   Clear